Regional Weather Roundup
Issued by NWS Austin/San Antonio, TX

Current Version | Previous Version | Text Only | Print | Product List | Glossary On
Versions: 1 2 3 4 5 6 7 8 9 10 11 12 13 14 15 16 17 18 19 20 21 22 23 24 25 26 27 28 29 30 31 32 33 34 35 36 37 38 39 40 41 42 43 44 45 46 47 48 49 50
000
ASUS44 KEWX 231102
RWREWX
SOUTH TEXAS REGIONAL WEATHER ROUNDUP
NATIONAL WEATHER SERVICE AUSTIN/SAN ANTONIO TX
600 AM CDT FRI OCT 23 2020

NOTE: "FAIR" INDICATED FEW OR NO CLOUDS BELOW 12,000 FEET WITH NO
SIGNIFICANT WEATHER AND/OR OBSTRUCTIONS TO VISIBILITY.

* - THESE STATIONS ARE NOT NWS OR FAA STATIONS...AND ARE NOT SUBJECT
    TO NWS AND FAA QUALITY CONTROL.

TXZ171-172-183>190-231200-
TEXAS HILL COUNTRY AND EDWARDS PLATEAU

CITY           SKY/WX    TMP DP  RH WIND       PRES   REMARKS
JUNCTION       CLOUDY    73  68  84 S3        29.93R
*LLANO         CLOUDY    73  66  78 SE3       29.91R
BURNET         CLOUDY    73  68  84 S5        29.94S
*HORSESHOE BAY CLOUDY    73  66  78 S6        29.92S
*LAGO VISTA    CLOUDY    72  69  92 S3        29.93S
*KERRVILLE     CLOUDY    72  67  84 S9G16     29.93F
*FREDERICKSBRG CLOUDY    72  65  81 S9        29.93F
*ROCKSPRINGS   CLOUDY    70  66  88 S14       29.99S
*BOERNE        CLOUDY    72  70  94 S3        29.94S
*CASTROVILLE   CLOUDY    77  71  81 SE6       29.92F
HONDO          CLOUDY    75  68  78 S8        29.91S
*UVALDE        CLOUDY    74  71  89 SE7       29.93S
DEL RIO        CLOUDY    76  70  82 E10       29.88R
*LAUGHLIN AFB  CLOUDY    73  70  89 SE12      29.90R
*SPOFFORD      CLOUDY   N/A N/A N/A SE10      29.85R
*EAGLE PASS    NOT AVBL
CARRIZO SPRGS  CLOUDY    73  72  94 SE7       29.88S
*FAITH RANCH   PTCLDY    73  70  88 SE5       29.90S
$$

TXZ173-191>194-202-209-217>225-228-231200-
CENTRAL AND SOUTH CENTRAL TEXAS

CITY           SKY/WX    TMP DP  RH WIND       PRES   REMARKS
GEORGETOWN     CLOUDY    74  70  87 SE5       29.94R
*TAYLOR        CLOUDY    74  71  89 E3        29.92R
AUSTIN/BERGSTM CLOUDY    75  73  93 S5        29.91S
AUSTIN/MABRY   CLOUDY    76  70  82 S3        29.92S
*PFLUGERVILLE  CLOUDY    73  72  94 CALM      29.92S FOG
SAN MARCOS     CLOUDY    75  73  93 S9        29.92S
NEW BRAUNFELS  MOCLDY    76  71  85 S5        29.90S
*RANDOLPH AFB  CLOUDY    74  71  89 S6        29.90F
*SEGUIN        MOCLDY    72  70  93 S5        29.94F
SAN ANTONIO    CLOUDY    75  71  87 S8        29.92S
STINSON FIELD  CLOUDY    73  72  96 SE3       29.89S
*KELLY FIELD   CLOUDY    75  71  88 S7        29.89S
*PLEASANTON    CLOUDY    75  73  91 CALM      29.91S
*KENEDY        CLOUDY    75  73  93 SE3       29.90F
*LA GRANGE     CLOUDY    76  76 100 CALM      29.89S
*GIDDINGS      CLOUDY    75  73  93 SE5       29.92S
*GONZALES      CLOUDY    76  75  99 S3        29.90S
$$

TXZ163>164-176>182-195>201-210>213-226-227-235-231200-
SOUTHEAST TEXAS

CITY           SKY/WX    TMP DP  RH WIND       PRES   REMARKS
COLLEGE STN    CLOUDY    74  73  97 SE5       29.93R
*BRYAN         CLOUDY    73  73 100 CALM      29.95R
*CALDWELL      CLOUDY    73 N/A N/A SE3       29.93R
*CROCKETT      NOT AVBL
*BRENHAM       CLOUDY    74  74  98 SE3       29.92S FOG
HUNTSVILLE     CLOUDY    76  71  85 CALM      29.94R
CONROE         LGT RAIN  76  74  93 SE3       29.93S
HOUSTON BUSH   MOCLDY    73  71  93 CALM      29.91S
HOUSTON HOBBY  PTCLDY    76  73  91 CALM      29.90S
*HOUSTON SW AP FOG       71  71 100 CALM      29.91F VSB 1/2
PEARLAND       CLEAR     74  71  91 CALM      29.92S
HOUSTON HOOKS  CLOUDY    72  70  93 CALM      29.92R FOG
ELLINGTON FLD  PTCLDY    75  73  94 E3        29.90S
SUGAR LAND     CLOUDY    75  73  93 CALM      29.90S
*HOUSTON EXEC  CLOUDY    75  75 100 SE5       29.92S FOG
*CLEVELAND MUN CLOUDY    74  74  98 CALM      29.94R FOG
*WHARTON       CLOUDY    70  69  97 CALM      29.91S FOG
*COLUMBUS      NOT AVBL
*EAGLE LAKE    CLOUDY    72  70  96 CALM      29.91S
$$

TXZ214>216-236>238-231200-
THE UPPER TEXAS COAST

CITY           SKY/WX    TMP DP  RH WIND       PRES   REMARKS
*ORANGE        CLOUDY    75  73  92 CALM      29.95S FOG
PORT ARTHUR    LGT RAIN  75  75 100 E12       29.92S FOG
GALVESTON      LGT RAIN  78  74  87 E3        29.91S
ANGLETON       FOG       72  70  93 CALM      29.90S VSB 1/4
*BAY CITY      FOG       71  71  99 CALM      29.90S VSB 1/2
PALACIOS       PTCLDY    73  73 100 CALM      29.89S FOG
$$

TXZ229>234-239>247-231200-
TEXAS COASTAL BEND AND RIO GRANDE PLAINS

CITY           SKY/WX    TMP DP  RH WIND       PRES   REMARKS
VICTORIA       FOG       72  71  97 CALM      29.89F VSB 1/4
*BEEVILLE      NOT AVBL
ROCKPORT       PTCLDY    76  75  97 S5        29.88S
*PORT ARANSAS  PTCLDY    78  75  90 SE7       29.89S
*PORT LAVACA   FOG       73  70  90 CALM      29.87F VSB 1/4
*INGLESIDE     CLEAR    N/A N/A N/A S3        29.87S
CORPUS CHRISTI PTCLDY    73  72  94 E3        29.87S
CORPUS NAS     PTCLDY    78  75  90 SE7       29.87S
*ROBSTOWN      FOG       73  72  99 E3        29.88S VSB 1/2
ALICE          FOG       74  74 100 E3        29.87S VSB 1/4
KINGSVILLE NAS NOT AVBL
COTULLA        CLOUDY    76  72  87 SE6       29.89R
LAREDO         CLOUDY    77  72  84 SE9       29.88R
$$

TXZ248>255-231200-
DEEP SOUTH TEXAS

CITY           SKY/WX    TMP DP  RH WIND       PRES   REMARKS
BROWNSVILLE    CLEAR     75  73  93 CALM      29.86S
PORT ISABEL    CLEAR     76  74  93 CALM      29.86S
HARLINGEN      FOG       71  71 100 E5        29.86S VSB 1/4
*HEBBRONVILLE  CLOUDY    74  72  92 S6        29.90R
MCALLEN        MOCLDY    79  72  79 E6        29.86S
*WESLACO       MOCLDY    74  72  93 CALM      29.86
FALFURRIAS     CLOUDY    69  69 100 CALM      29.87S VSB 1/4
EDINBURG       MOCLDY    63  62  96 CALM      29.87S FOG
*ZAPATA        NOT AVBL
$$

TXZ213>215-236>238-242>244-246-247-251-254-255-231200-
CMAN STATIONS

STATION/POSITION TIME  TEMP    WIND        PRES    WAVE
                       AIR SEA DIR/SP/G            HT/PER
                 (UTC) (F)     (DEG/KT/KT) (MB)    (FT/S)
SEA RIM ST PARK  1000   77     120/  5/  6 1013.2
NORTH JETTY/GLS  1030   83 78  130/  4/  5 1011.6
EAGLE POINT      1030   78 80  110/  9/ 10 1012.1
MORGANS POINT    1030   77 80  100/  6/  8 1012.7
PORT O`CONNOR    1024   78 83  160/  6/  8 1011.6
MALAQUITE BEACH  1024   79     120/  7/  9   N/A
BAFFIN BAY       1024   79 83  120/  6/  7 1010.9
PORT ISABEL      1024   79 83  160/  5/  6 1012.9
$$



USA.gov is the U.S. government's official web portal to all federal, state and local government web resources and services.